This is the latest recevied weather packets stored in our database for station/object N1ADJ. If no packets are shown the sender has not sent any weather packets the latest 10 day(s).
| Time | Temp. | Humidity | Pressure | Rain* | Wind** | Luminosity | Snow |
|---|---|---|---|---|---|---|---|
| 1777563336 | 10° C | 98% | 1008 hPa | 0 mm | - | - | - |
| 1777560016 | 8.89° C | 98% | 1008.7 hPa | 0 mm | - | - | - |
| 1777556718 | 8.33° C | 98% | 1008.8 hPa | 0.25 mm | - | - | - |
| 1777555818 | 8.33° C | 98% | 1008.6 hPa | 0.25 mm | - | - | - |
| 1777554018 | 8.33° C | 98% | 1009 hPa | 0.25 mm | - | - | - |
| 1777553416 | 7.78° C | 98% | 1008.9 hPa | 0.76 mm | - | - | - |
| 1777552218 | 7.78° C | 98% | 1009.1 hPa | 1.27 mm | - | - | - |
| 1777551018 | 7.22° C | 97% | 1009.1 hPa | 1.52 mm | - | - | - |
| 1777549218 | 7.22° C | 97% | 1009.3 hPa | 0.76 mm | - | - | - |
| 1777548318 | 7.22° C | 97% | 1009.6 hPa | 1.02 mm | - | - | - |
| 1777546818 | 7.22° C | 97% | 1009.4 hPa | 1.02 mm | - | - | - |
| 1777546218 | 7.22° C | 97% | 1009.6 hPa | 1.02 mm | - | - | - |
| 1777545018 | 7.22° C | 97% | 1009.4 hPa | 2.79 mm | - | - | - |
| 1777542618 | 7.22° C | 97% | 1009.6 hPa | 6.86 mm | - | - | - |
| 1777539938 | 7.22° C | 97% | 1009.9 hPa | 4.83 mm | - | - | - |
| 1777537217 | 7.22° C | 97% | 1009.5 hPa | 3.3 mm | - | - | - |
| 1777533317 | 7.22° C | 96% | 1010.5 hPa | 1.52 mm | - | - | - |
| 1777532718 | 7.22° C | 96% | 1010.4 hPa | 1.52 mm | - | - | - |
| 1777530357 | 7.22° C | 96% | 1010.7 hPa | 1.27 mm | - | - | - |
| 1777529117 | 7.22° C | 96% | 1011.2 hPa | 0.76 mm | - | - | - |
| 1777528517 | 7.22° C | 96% | 1011.2 hPa | 0.51 mm | - | - | - |
| 1777527617 | 7.22° C | 96% | 1011.6 hPa | 0.51 mm | - | - | - |
| 1777527037 | 6.67° C | 96% | 1012 hPa | 0.51 mm | - | - | - |
| 1777525837 | 6.67° C | 96% | 1012.1 hPa | 0.76 mm | - | - | - |
| 1777524637 | 6.67° C | 96% | 1012.3 hPa | 1.02 mm | - | - | - |
* Rain latest hour (hover to see other rain measurements)
** Current wind speed in m/s (hover to see current wind gust speed)